This demonstration page uses our WeatherBlox Daily Observations layout. Learn more.

Left ArrowRight Arrow

Hourly Observations for November 29, 2020

Temp ( °F °C ) Dew Point ( °F °C ) Humidity (%) Winds ( mph kmh ) Pressure ( in mb ) Visibility ( mi km ) Precip ( " mm )
12:15 am 00:15 Clear 40 4.4 30 -1.1 68 68 WSW 16 26 30.07 1018 10 16 N/A
12:35 am 00:35 Clear 39 3.9 30 -1.3 69 69 WSW 16 26 30.09 1019 10 16 N/A
12:50 am 00:50 Clear 39 3.8 30 -1.1 71 71 WSW 18 30 30.09 1019 10 16 N/A
1:15 am 01:15 Clear 40 4.3 31 -0.6 71 71 WSW 17 28 30.08 1019 10 16 N/A
1:35 am 01:35 Clear 39 4 31 -0.7 72 72 WSW 16 26 30.10 1019 10 16 N/A
1:55 am 01:55 Clear 37 2.7 30 -1.2 76 76 W 15 24 30.13 1020 10 16 N/A
2:15 am 02:15 Clear 37 2.5 29 -1.4 76 76 WNW 12 19 30.13 1020 10 16 N/A
2:35 am 02:35 Clear 35 1.5 25 -3.7 69 69 NW 10 17 30.14 1021 10 16 N/A
2:55 am 02:55 Clear 36 2.1 22 -5.5 58 58 NNW 10 17 30.15 1021 10 16 N/A
3:15 am 03:15 Clear 35 1.8 21 -6 57 57 NNW 13 20 30.15 1021 10 16 N/A
3:35 am 03:35 Clear 36 2 22 -5.7 57 57 N 14 22 30.16 1021 10 16 N/A
3:55 am 03:55 Clear 37 3 22 -5.5 54 54 N 14 22 30.16 1021 10 16 N/A
4:15 am 04:15 Clear 38 3.5 22 -5.6 52 52 N 15 24 30.17 1022 10 16 N/A
4:35 am 04:35 Clear 38 3.5 21 -6 50 50 N 18 30 30.19 1022 10 16 N/A
4:55 am 04:55 Clear 38 3.3 20 -6.5 49 49 N 18 30 30.20 1023 10 16 N/A
5:15 am 05:15 Clear 38 3.2 20 -6.7 49 49 N 18 30 30.23 1024 10 16 N/A
5:35 am 05:35 Clear 37 3 20 -6.5 50 50 N 21 33 30.24 1024 10 16 N/A
5:55 am 05:55 Clear 37 2.8 20 -6.5 51 51 N 23 37 30.26 1025 10 16 N/A
6:15 am 06:15 Clear 36 2.4 20 -6.4 53 53 N 18 30 30.27 1025 10 16 N/A
6:35 am 06:35 Clear 37 2.5 20 -6.5 52 52 N 23 37 30.29 1026 10 16 N/A
6:55 am 06:55 Clear 35 1.9 20 -6.5 54 54 N 16 26 30.32 1027 10 16 N/A
7:15 am 07:15 Clear 35 1.6 21 -6.1 57 57 N 16 26 30.34 1027 10 16 N/A
7:35 am 07:35 Clear 34 1.1 21 -6 60 60 N 18 30 30.36 1028 10 16 N/A
7:55 am 07:55 Sunny 34 1 21 -6 60 60 N 21 33 30.38 1029 10 16 N/A
8:15 am 08:15 Sunny 34 1 21 -6 60 60 N 18 30 30.40 1029 10 16 N/A
8:35 am 08:35 Sunny 34 1 22 -5.8 61 61 N 21 33 30.40 1029 10 16 N/A
8:55 am 08:55 Sunny 34 1.2 22 -5.6 61 61 N 24 39 30.40 1030 10 16 N/A
9:15 am 09:15 Sunny 34 1.2 21 -6 59 59 N 25 41 30.41 1030 10 16 N/A
9:35 am 09:35 Sunny 33 0.7 21 -6.3 60 60 N 24 39 30.43 1030 10 16 N/A
9:55 am 09:55 Sunny 35 1.5 21 -6.2 57 57 N 28 44 30.44 1031 10 16 N/A
10:15 am 10:15 Sunny 35 1.4 21 -6.3 57 57 N 23 37 30.45 1031 10 16 N/A
10:35 am 10:35 Sunny 35 1.6 21 -6 57 57 N 22 35 30.46 1032 10 16 N/A
10:55 am 10:55 Sunny 35 1.9 20 -6.4 55 55 N 21 33 30.47 1032 10 16 N/A
11:15 am 11:15 Sunny 36 2.4 21 -6.3 53 53 N 21 33 30.46 1032 10 16 N/A
11:35 am 11:35 Sunny 37 2.5 20 -6.6 51 51 N 24 39 30.47 1032 10 16 N/A
11:55 am 11:55 Sunny 37 2.6 19 -7.1 49 49 N 20 31 30.47 1032 10 16 N/A
12:15 pm 12:15 Sunny 37 2.7 17 -8.1 45 45 NNW 22 35 30.46 1031 10 16 N/A
12:35 pm 12:35 Sunny 37 3 16 -8.9 42 42 N 18 30 30.47 1032 10 16 N/A
12:55 pm 12:55 Sunny 38 3.1 16 -8.9 41 41 N 22 35 30.47 1032 10 16 N/A
1:15 pm 13:15 Sunny 38 3.3 18 -7.7 45 45 NNW 20 31 30.45 1031 10 16 N/A
1:35 pm 13:35 Sunny 38 3.1 15 -9.7 39 39 NNW 23 37 30.47 1032 10 16 N/A
1:55 pm 13:55 Sunny 38 3.1 14 -9.9 38 38 N 22 35 30.46 1031 10 16 N/A
2:15 pm 14:15 Sunny 38 3.3 14 -10.2 37 37 N 16 26 30.45 1031 10 16 N/A
2:35 pm 14:35 Sunny 38 3.4 13 -10.3 36 36 NNW 18 30 30.45 1031 10 16 N/A
2:55 pm 14:55 Sunny 38 3.2 13 -10.7 36 36 NNW 23 37 30.46 1031 10 16 N/A
3:15 pm 15:15 Sunny 38 3.2 13 -10.6 36 36 NNW 16 26 30.46 1031 10 16 N/A
3:35 pm 15:35 Sunny 37 2.9 12 -11.3 35 35 NNW 20 31 30.46 1031 10 16 N/A
3:55 pm 15:55 Sunny 37 2.8 12 -11.2 35 35 NNW 14 22 30.46 1031 10 16 N/A
4:15 pm 16:15 Sunny 37 2.6 11 -11.7 34 34 NNW 13 20 30.47 1032 10 16 N/A
4:35 pm 16:35 Sunny 36 2.1 11 -11.9 35 35 NNW 20 31 30.48 1032 10 16 N/A
4:55 pm 16:55 Sunny 35 1.5 11 -11.8 37 37 NNW 14 22 30.48 1032 10 16 N/A
5:15 pm 17:15 Clear 33 0.5 10 -12 39 39 NNW 12 19 30.49 1033 10 16 N/A
5:35 pm 17:35 Clear 32 undefined 10 -12 40 40 NNW 12 19 30.51 1033 10 16 N/A
5:55 pm 17:55 Clear 31 -0.3 10 -12 41 41 NNW 10 17 30.52 1033 10 16 N/A
6:15 pm 18:15 Clear 30 -1.2 11 -11.9 44 44 NNW 10 17 30.53 1034 10 16 N/A
6:35 pm 18:35 Clear 28 -2.1 10 -12 47 47 NW 9 15 30.54 1034 10 16 N/A
6:55 pm 18:55 Clear 26 -3.1 10 -12.1 50 50 NNW 9 15 30.56 1035 10 16 N/A
7:15 pm 19:15 Clear 26 -3.2 10 -12.1 51 51 NNW 9 15 30.56 1035 10 16 N/A
7:35 pm 19:35 Clear 25 -3.7 10 -12.1 53 53 NNW 9 15 30.57 1035 10 16 N/A
7:55 pm 19:55 Clear 25 -4 10 -12.2 53 53 NNW 10 17 30.58 1035 10 16 N/A
8:15 pm 20:15 Clear 24 -4.3 10 -12.3 54 54 NNW 9 15 30.58 1036 10 16 N/A
8:35 pm 20:35 Clear 24 -4.3 10 -12.3 54 54 NW 9 15 30.58 1036 10 16 N/A
8:55 pm 20:55 Clear 21 -6.3 9 -12.6 61 61 NW 8 13 30.60 1036 10 16 N/A
9:15 pm 21:15 Clear 20 -6.4 9 -12.6 62 62 WNW 8 13 30.60 1036 10 16 N/A
9:35 pm 21:35 Clear 20 -6.6 9 -12.7 62 62 WNW 7 11 30.60 1036 10 16 N/A
9:55 pm 21:55 Clear 19 -7.1 9 -13 63 63 WNW 7 11 30.61 1036 10 16 N/A
10:15 pm 22:15 Clear 19 -7 9 -13 63 63 WNW 7 11 30.61 1036 10 16 N/A
10:35 pm 22:35 Clear 19 -7.1 9 -13 63 63 WNW 8 13 30.62 1037 10 16 N/A
10:55 pm 22:55 Clear 18 -7.7 8 -13.1 66 66 WNW 8 13 30.61 1037 10 16 N/A
11:15 pm 23:15 Clear 17 -8.3 8 -13.4 67 67 WNW 7 11 30.62 1037 10 16 N/A
11:35 pm 23:35 Clear 17 -8.2 8 -13.1 68 68 WNW 7 11 30.62 1037 10 16 N/A
11:55 pm 23:55 Clear 18 -8 8 -13.1 67 67 W 9 15 30.62 1037 10 16 N/A

Powered by AerisWeather